Vorticity
1 5 7 9 7 5 5 4 6 4 6 9 8 13 13 7 5 3 8 9 2 9 12 9 11 3 -2 7 10 3 8 11 3 6 8 5 11 12 2 3 7 9 9 4 6 6 5 5 4 4 4 3 3 3 3 4 4 4 5 4 5 6 6 5 7 7 8 8 7 6 6 6 8 7 6 5 5 5 5 6 8 7 6 7 7 7 6 6 5 5 4 4 5 5 5 4 3
1 5 6 7 10 9 4 3 6 3 4 8 9 14 10 7 7 5 8 7 4 10 6 1 3 0 1 9 12 6 10 11 3 8 5 4 9 6 7 6 5 11 7 6 7 4 6 5 5 4 3 4 2 4 4 4 5 4 4 4 6 6 5 5 6 7 7 8 8 7 6 6 7 7 6 5 5 5 5 5 7 7 6 6 6 6 6 6 6 5 5 5 5 5 5 4 5
3 6 8 5 10 10 4 5 5 4 7 7 8 8 4 7 9 4 5 7 7 9 3 0 3 4 5 10 10 4 9 10 6 6 1 5 5 2 8 6 7 10 8 7 5 4 6 5 5 4 3 3 3 4 3 4 4 4 4 4 6 5 5 5 5 6 7 7 8 7 6 6 7 7 6 5 5 5 5 6 7 8 7 6 6 6 5 5 4 5 5 5 5 5 5 5 5
3 3 7 8 8 5 6 8 4 7 7 7 13 11 5 5 4 4 5 6 8 8 6 4 4 6 6 7 5 3 11 8 7 4 1 9 4 6 7 3 10 10 9 6 3 5 5 6 5 3 4 3 3 4 3 4 4 4 4 4 5 5 5 5 4 4 5 6 6 7 7 7 7 7 7 5 5 5 5 7 8 8 9 7 6 6 6 5 4 6 5 4 4 4 4 4 4
5 3 5 11 8 2 6 6 2 7 6 7 13 10 6 6 7 6 4 5 9 9 7 6 7 7 5 7 5 7 13 6 9 1 -2 12 7 8 6 3 10 8 11 5 3 6 4 6 4 4 4 3 3 3 4 3 3 4 4 4 5 5 5 5 5 4 4 5 5 6 6 7 7 7 7 6 5 5 5 7 8 8 9 8 6 6 6 6 5 5 5 4 4 4 4 4 4
5 6 8 11 10 8 7 3 2 6 7 8 8 8 9 12 12 3 2 7 8 8 7 8 11 10 8 7 5 8 11 6 11 2 -4 10 8 6 6 6 7 8 12 4 5 6 4 6 4 5 3 4 4 2 4 3 4 4 4 4 4 4 4 4 5 5 5 5 5 6 6 7 7 8 8 7 5 5 5 7 8 8 9 8 7 7 6 6 5 5 4 3 4 4 4 4 4
5 4 4 3 6 9 5 2 5 8 10 7 8 11 6 6 6 -1 2 6 4 5 6 10 11 10 9 6 5 6 9 7 12 8 -1 7 9 5 5 7 5 9 12 4 6 5 4 6 5 5 4 4 3 3 3 3 4 3 4 4 4 4 4 5 4 5 5 4 5 4 5 5 6 7 8 8 6 5 5 6 7 8 8 7 7 7 7 6 5 5 4 3 3 3 4 3 4
7 3 2 2 6 8 7 11 9 12 14 6 10 13 5 3 3 4 5 2 4 4 4 10 9 8 7 8 7 5 7 6 8 8 1 6 11 5 4 7 3 10 13 5 5 4 4 6 5 6 5 5 4 4 3 3 4 3 4 3 4 4 4 5 4 5 3 3 3 3 3 5 5 6 7 8 8 5 5 6 6 8 8 7 6 7 7 6 6 5 4 3 3 3 3 3 5
5 5 5 2 5 7 12 16 10 13 13 2 9 8 -0 1 1 9 7 0 6 4 4 9 8 7 8 8 7 8 9 4 6 8 4 7 10 6 4 4 1 8 14 6 3 4 4 5 5 5 5 6 5 4 3 4 4 3 4 3 4 4 4 4 4 4 3 3 3 3 4 6 7 6 7 8 9 7 4 6 6 7 9 8 6 7 7 6 6 4 4 3 4 4 3 4 5
3 4 7 3 1 6 14 13 8 11 3 -2 12 8 -1 1 4 9 3 -0 8 6 5 8 9 11 10 7 8 11 9 5 9 9 8 8 7 7 5 2 2 5 13 9 2 3 4 4 4 4 6 6 6 5 5 4 4 3 2 3 3 3 4 3 4 4 3 4 4 4 5 7 7 6 8 8 10 8 5 5 5 7 8 8 6 6 6 6 6 4 4 4 4 4 4 4 4
5 1 5 6 -0 5 13 9 5 5 1 2 9 6 1 7 11 7 1 1 6 7 7 7 8 12 10 6 9 9 7 9 11 10 10 8 5 8 5 3 6 4 12 11 3 4 4 5 3 4 5 5 6 6 5 4 4 3 2 2 3 3 4 4 4 3 4 4 4 4 5 7 5 4 7 8 10 9 6 4 5 6 8 9 7 6 5 5 5 4 4 4 5 5 4 4 3
5 1 3 6 2 10 16 9 5 2 8 8 4 5 6 10 11 6 5 5 5 6 7 7 5 8 9 8 10 6 7 10 9 11 9 6 5 8 5 4 8 5 10 12 5 5 4 5 5 4 5 4 5 6 5 5 4 3 3 3 3 4 4 4 3 3 4 4 4 4 5 6 5 3 4 7 10 10 8 4 4 5 7 9 7 6 5 5 5 4 4 4 4 4 4 3 3
5 3 3 3 2 13 16 10 8 6 11 7 3 10 9 7 6 6 7 7 7 7 6 7 7 8 8 9 11 7 9 9 6 10 7 6 5 6 7 5 8 5 6 11 7 5 6 6 5 5 5 4 5 5 4 4 4 4 4 4 4 5 5 4 4 4 5 5 5 6 6 6 8 7 3 6 10 10 9 5 4 5 6 8 8 6 5 5 4 4 4 4 3 3 4 4 3
7 7 8 5 1 7 7 7 8 7 12 9 6 7 5 5 5 8 7 5 6 8 9 8 8 11 8 7 8 6 8 8 6 9 7 7 7 6 10 7 7 6 5 12 10 4 6 6 5 6 5 5 7 5 5 4 5 5 4 5 4 5 5 5 5 4 5 4 5 6 6 5 8 11 6 4 9 10 8 7 4 4 6 6 8 7 5 5 4 4 3 3 3 4 4 4 4
6 8 9 6 3 5 4 8 6 2 6 9 13 9 3 6 9 10 5 5 6 6 10 8 7 10 9 9 9 7 7 8 7 8 7 8 9 7 9 8 5 6 5 10 13 5 3 6 5 6 7 7 9 7 7 7 5 4 4 5 5 6 5 5 4 4 5 4 4 4 7 7 6 12 11 3 7 11 8 8 5 4 6 6 8 8 7 6 4 4 4 4 3 4 5 4 4
5 6 5 1 3 6 5 7 5 3 3 4 13 13 5 3 7 10 4 8 9 4 6 8 9 7 7 10 11 10 8 10 8 7 8 9 10 6 8 9 5 6 6 7 13 7 1 6 6 6 8 7 9 10 9 10 7 5 5 5 5 5 4 5 4 4 5 4 5 3 7 11 7 12 14 4 5 11 9 9 6 5 6 6 6 7 7 6 5 4 4 4 4 4 4 4 5
5 8 6 3 4 7 8 7 5 6 6 4 9 12 9 3 5 8 3 6 9 6 6 8 10 7 6 10 13 12 8 9 8 6 7 9 9 3 6 10 6 5 7 5 10 10 4 5 6 5 5 3 5 7 8 10 7 4 6 6 6 5 4 5 4 5 5 4 4 3 9 14 11 14 14 5 4 11 11 9 7 5 6 7 5 6 7 7 6 5 4 4 4 5 4 4 5
6 8 6 5 5 5 7 8 7 7 6 7 7 7 8 5 5 6 2 4 6 4 6 7 8 7 7 9 13 12 8 9 7 7 7 6 7 3 4 9 7 4 7 7 6 8 7 6 7 5 3 3 3 4 7 8 6 6 7 7 7 5 4 5 4 5 5 4 2 3 8 13 16 16 12 6 4 10 12 8 8 6 6 7 5 5 6 6 7 5 4 4 4 4 4 5 5
9 9 7 6 6 4 4 5 6 7 5 7 7 7 11 8 6 4 2 5 5 3 5 6 6 6 7 7 12 14 10 10 8 7 9 7 5 3 4 8 8 4 6 8 6 6 6 7 6 4 4 4 5 6 5 5 5 7 7 7 8 6 4 4 4 5 5 4 2 4 6 11 22 17 8 7 4 9 13 8 9 7 6 6 5 5 5 6 6 5 5 4 5 5 5 6 6
11 12 10 8 8 6 5 7 7 5 4 7 7 8 12 12 7 4 5 8 7 4 3 4 5 4 6 7 9 12 11 11 11 7 10 11 7 3 4 9 9 4 5 7 6 5 5 6 4 3 4 2 6 9 6 6 6 5 6 7 8 6 4 4 4 4 4 4 3 5 6 10 21 14 6 8 4 8 13 9 9 7 6 6 5 5 5 6 5 5 5 5 5 4 5 5 5
13 12 10 9 9 8 8 9 8 7 6 7 7 8 11 13 7 5 9 10 9 7 4 1 5 7 5 7 7 9 11 10 11 8 9 12 9 5 4 8 8 5 8 8 6 5 5 5 4 4 4 1 4 7 6 9 11 7 6 8 9 8 5 4 5 4 4 5 4 5 5 7 17 12 4 7 4 7 11 10 9 7 7 6 5 5 5 6 6 6 6 6 5 4 5 3 5
13 10 6 8 12 11 11 10 10 11 9 7 8 9 11 9 2 2 7 10 7 6 8 -2 2 15 9 6 7 8 11 8 8 9 9 11 9 6 5 7 7 6 9 10 6 5 7 5 4 4 3 4 5 6 5 7 10 7 6 8 7 7 8 7 6 5 5 5 4 6 5 4 11 12 6 5 4 5 9 11 10 8 8 6 5 4 5 6 6 7 7 6 6 7 6 5 6
12 8 4 8 10 10 12 11 10 11 10 8 7 7 8 6 3 4 5 10 9 4 10 1 1 15 10 6 9 7 10 9 8 8 8 10 9 8 6 6 7 6 8 9 6 5 9 7 4 3 2 5 5 6 5 3 2 3 5 6 5 7 9 9 7 5 6 5 4 5 5 4 8 11 10 7 4 4 7 10 11 10 8 7 6 4 4 6 5 5 6 6 6 6 6 6 8
6 5 5 8 7 6 10 11 9 9 11 9 9 8 6 6 7 11 9 8 9 4 6 4 3 10 8 7 8 6 9 10 9 8 8 8 9 9 8 8 9 7 6 8 8 6 9 9 6 4 2 3 4 5 5 0 -2 2 6 4 5 9 7 6 6 5 6 6 5 3 4 7 8 9 11 11 7 4 6 8 10 12 9 8 8 5 4 5 4 4 6 6 4 4 6 6 6
4 4 2 6 6 5 8 10 10 11 12 12 11 11 8 6 4 9 12 7 6 6 6 9 14 13 9 9 7 7 8 10 10 9 8 8 9 10 9 9 9 8 7 7 8 7 9 10 8 5 3 5 6 6 5 1 -1 4 7 4 5 10 7 5 5 6 5 5 7 5 4 6 8 8 10 12 10 6 6 7 9 12 11 9 8 7 5 4 2 3 5 6 4 3 6 4 3
4 3 3 7 8 7 7 6 8 9 11 11 11 12 11 10 6 5 9 9 7 8 6 10 15 11 7 8 8 8 8 8 9 9 9 8 10 10 8 8 6 6 7 8 9 8 8 9 9 6 3 5 9 10 9 7 6 6 7 6 6 7 8 7 6 6 6 5 6 6 6 6 7 8 8 10 11 9 6 6 7 10 12 11 9 7 7 6 3 2 3 4 4 4 5 4 4
3 4 7 10 8 7 6 2 4 8 10 10 8 11 12 12 11 8 6 6 5 6 7 7 7 6 7 8 8 7 6 7 8 9 9 8 10 10 8 7 4 5 7 8 8 8 8 9 9 7 5 6 9 10 10 11 11 8 6 6 7 7 8 8 6 5 6 7 7 7 7 6 6 7 8 8 11 10 7 6 6 7 10 12 11 7 7 8 7 4 3 3 2 3 4 5 5
2 4 4 7 5 5 6 2 5 7 8 8 7 8 10 12 13 11 9 7 5 5 5 5 6 10 12 11 9 7 5 5 6 7 8 8 10 10 7 6 6 6 6 9 9 8 9 10 11 9 7 7 7 8 10 12 12 10 8 7 6 6 6 7 5 5 6 8 9 9 7 6 6 8 9 8 10 11 8 6 6 6 7 10 12 11 8 6 7 7 6 4 2 2 3 3 3
2 4 1 3 1 3 6 4 7 8 7 7 6 7 7 10 13 12 12 10 8 7 4 2 4 10 14 13 9 5 5 6 6 6 8 9 10 9 7 6 9 7 6 10 10 8 7 10 13 10 7 8 8 8 9 10 11 10 9 9 8 6 5 6 6 5 6 7 9 8 8 7 7 10 10 8 9 11 9 7 6 6 6 7 10 12 10 6 5 7 8 9 6 4 3 2 0
5 8 2 1 1 3 5 4 9 9 7 6 3 7 7 6 8 12 14 12 10 9 7 7 6 7 9 9 5 3 7 8 7 7 7 9 9 8 5 6 8 6 6 9 9 8 7 8 11 10 8 8 8 7 7 8 9 9 8 9 9 7 6 6 6 6 6 7 9 8 8 9 9 10 11 10 9 10 10 8 6 6 5 6 8 10 11 10 8 7 7 8 8 7 7 5 2
5 8 5 4 4 3 6 14 18 10 5 6 4 5 8 9 7 9 12 12 12 11 9 7 6 8 7 7 9 12 15 12 8 8 6 8 10 8 5 5 7 7 6 8 8 8 7 7 8 9 9 9 7 6 7 7 8 8 8 7 8 8 9 8 6 7 7 8 9 8 8 9 9 9 10 12 11 10 9 8 6 6 5 5 7 9 10 12 12 10 9 7 6 7 8 8 6
4 7 6 3 4 5 13 24 18 9 3 2 6 5 4 12 10 6 10 11 13 14 11 9 5 5 6 5 9 17 23 17 10 8 5 4 7 9 7 6 7 8 6 6 8 8 7 7 7 6 8 8 7 6 5 5 7 8 8 7 7 8 10 9 8 8 7 8 9 8 8 10 9 9 10 11 12 10 8 7 5 5 5 5 7 8 8 10 12 13 13 11 8 8 9 9 7
3 6 3 1 8 12 19 21 5 1 3 -1 8 13 6 12 16 8 7 10 13 15 11 13 13 8 6 4 5 15 21 15 8 7 7 6 6 8 10 8 8 8 7 7 8 9 7 7 7 6 6 7 6 5 5 5 6 7 8 7 6 7 9 9 10 10 8 9 10 7 7 9 9 9 10 11 13 10 8 7 6 5 5 5 6 5 6 8 10 12 12 12 12 12 12 13 13
3 2 1 4 10 11 14 12 3 -3 -1 -1 7 18 9 12 26 17 11 11 10 13 10 11 17 13 11 9 8 13 13 9 7 7 10 8 3 5 7 8 10 10 8 7 8 9 8 8 8 7 6 5 5 5 6 5 5 7 7 7 6 6 7 7 8 9 9 11 11 8 7 8 8 9 11 12 13 10 8 8 7 7 6 5 5 4 4 7 9 10 10 10 11 11 10 12 14
5 -0 2 9 7 9 9 8 10 -1 -2 4 3 11 8 13 34 23 16 20 12 11 9 7 14 12 12 12 10 11 9 9 12 12 11 7 3 3 5 6 10 12 10 7 7 8 8 8 8 7 7 6 5 5 6 5 4 6 7 7 8 9 8 7 7 8 8 11 11 8 8 8 7 9 12 12 11 10 9 9 9 9 7 6 4 3 4 6 7 7 8 8 9 8 8 9 9
9 5 6 12 2 7 13 9 7 -6 2 12 -3 3 8 13 31 17 7 14 12 15 9 1 9 11 11 13 13 13 12 12 14 17 13 8 11 6 1 4 7 10 13 10 8 7 7 8 9 7 7 7 5 5 6 6 4 5 7 7 9 10 8 7 8 8 8 11 11 7 7 8 7 9 11 12 11 9 10 9 10 10 7 5 4 3 4 6 5 5 6 7 7 6 5 7 8
12 11 14 15 -1 -1 9 11 5 -9 6 14 -5 3 8 5 17 14 7 1 0 18 16 5 8 9 10 12 14 15 16 12 6 11 13 9 13 10 4 5 4 7 12 12 8 7 8 8 8 6 6 8 7 5 6 6 6 6 6 7 8 8 8 8 10 8 7 11 11 6 7 7 7 8 9 12 12 8 9 9 9 10 8 5 4 3 4 6 5 4 5 6 6 5 4 5 6
14 12 15 12 0 -4 -2 7 8 -6 3 9 -4 5 10 6 10 13 17 4 -7 8 18 15 10 7 8 8 12 14 17 17 5 6 17 15 10 8 9 6 2 4 10 12 9 7 9 9 9 6 5 7 7 5 6 7 7 7 6 6 6 7 8 10 9 7 6 10 10 6 8 7 6 7 8 12 12 8 8 9 10 10 8 6 4 3 4 5 5 4 4 4 5 5 4 5 5
14 13 12 7 3 2 -3 9 17 2 0 4 -2 3 10 10 6 6 17 18 4 -0 9 16 10 7 10 7 9 12 15 21 16 10 14 13 8 7 9 5 4 7 7 9 10 9 9 9 10 9 5 6 7 6 6 7 7 7 5 5 6 7 9 9 8 7 5 7 10 6 7 8 6 7 8 10 11 10 10 10 12 11 8 6 5 3 3 4 4 5 5 5 4 4 4 4 5
15 14 12 9 5 5 5 14 23 11 2 1 -5 1 11 7 2 3 7 13 12 5 7 13 9 6 8 9 11 11 12 17 20 15 8 6 5 6 8 5 6 8 5 6 9 9 9 8 10 10 6 6 7 6 7 7 6 6 5 4 6 6 8 8 7 6 3 5 9 8 8 9 7 7 8 8 9 10 11 11 11 11 9 7 6 4 2 3 4 5 5 6 5 4 5 4 4
12 10 8 9 8 12 12 11 17 12 5 6 0 2 5 -2 2 10 3 2 9 12 10 9 12 11 6 8 11 10 11 13 15 16 15 11 2 -1 4 5 6 7 6 6 7 7 8 7 9 10 9 6 6 7 8 8 6 6 6 5 6 7 8 8 7 6 5 6 9 9 8 8 8 7 7 7 8 8 9 10 11 10 9 7 6 4 3 4 5 5 5 5 5 5 5 4 4
10 8 5 15 18 14 5 -1 10 16 7 -1 -3 5 6 -5 -3 5 2 -2 3 12 13 10 16 17 9 10 12 11 12 13 13 13 16 15 5 3 7 6 7 8 6 6 7 7 7 8 8 9 11 8 6 7 8 8 7 6 6 6 6 7 8 8 7 7 6 7 9 9 8 8 8 8 7 7 7 7 7 8 9 8 7 6 4 4 5 5 5 5 5 5 5 5 6 5 5
10 8 7 18 18 6 -1 -1 13 34 35 10 -7 -0 12 15 10 3 2 2 1 4 8 11 15 15 13 12 11 10 9 10 13 13 13 13 10 11 11 8 7 8 8 7 7 8 8 9 9 8 10 9 7 7 8 8 6 6 6 7 7 7 8 8 6 7 7 7 8 8 8 7 8 8 8 7 6 7 7 7 7 6 5 5 4 4 5 5 5 5 5 6 6 6 6 5 4
5 9 13 13 7 2 4 4 2 24 45 28 2 -5 9 30 26 8 5 6 3 6 12 16 13 12 18 15 8 10 10 8 7 8 12 12 10 10 11 10 7 7 11 8 6 9 8 8 9 9 9 8 7 7 7 8 6 7 8 7 8 7 7 7 6 7 8 8 8 8 8 7 7 8 8 7 6 6 6 6 6 6 5 5 5 5 5 5 5 4 4 4 4 4 4 5 5
4 8 13 7 7 8 9 10 0 6 17 7 0 2 9 27 23 8 5 5 9 17 19 20 16 14 18 14 9 10 12 14 9 5 7 10 12 12 11 10 6 8 17 12 5 9 10 7 9 9 8 8 7 7 7 7 7 8 8 8 9 7 6 6 7 7 7 7 8 8 8 7 7 8 8 8 7 6 6 5 5 5 5 5 4 4 4 4 3 3 4 5 5 5 5 7 9
8 7 8 5 10 11 10 12 3 3 6 -3 1 5 2 11 16 11 5 2 9 13 7 9 10 9 14 14 8 5 7 12 14 11 8 7 10 13 12 12 7 8 18 15 5 7 10 9 7 8 8 8 7 7 7 7 7 7 8 7 7 7 6 5 6 6 6 6 6 6 7 8 7 7 8 8 7 7 7 7 6 5 5 5 5 5 5 5 6 6 6 7 7 7 7 9 9
8 5 3 2 9 11 10 9 3 5 7 1 0 -3 -7 2 12 15 8 0 7 12 9 9 2 1 14 17 8 7 9 8 11 14 12 9 9 13 14 12 8 7 13 13 5 5 8 9 8 7 7 9 8 7 7 7 7 7 8 7 7 7 6 6 6 6 7 6 5 5 6 7 7 7 7 7 7 7 7 7 6 7 7 7 7 7 7 7 7 8 8 8 8 7 7 7 7
5 7 4 3 13 14 10 11 11 10 5 -1 -4 -7 -3 2 3 8 9 5 6 9 12 13 9 14 22 17 6 5 8 8 9 9 11 12 9 11 15 15 12 7 9 10 6 5 7 9 10 8 6 8 8 8 7 7 8 8 8 7 6 6 7 7 7 6 6 6 6 6 6 6 7 7 7 7 7 7 7 6 6 6 7 7 7 7 7 7 7 7 7 7 7 7 7 7 8
3 8 3 4 14 11 5 12 16 10 4 1 -6 -9 -3 -1 0 5 6 9 10 7 7 9 10 10 6 5 9 7 3 4 5 2 5 9 8 8 12 16 17 12 8 8 7 7 7 8 10 9 7 6 7 8 7 7 8 8 9 7 6 6 6 7 7 6 5 5 6 6 6 6 7 7 7 6 7 7 7 6 5 6 6 6 7 6 6 7 7 8 8 8 8 8 8 8 7
3 5 1 5 12 6 4 12 18 17 13 9 3 6 8 -1 -2 2 1 8 12 7 8 11 9 3 -2 5 13 10 7 8 7 3 3 4 4 5 7 10 17 18 11 7 8 9 7 6 8 9 8 8 7 7 6 7 8 8 8 8 7 7 7 7 7 6 5 5 6 6 6 6 7 7 7 7 7 7 7 7 6 6 6 6 6 6 6 6 7 7 7 8 7 7 7 6 6
5 2 3 9 9 7 6 5 11 17 15 10 10 19 21 7 -1 1 4 8 7 1 3 11 14 11 10 11 8 5 9 12 8 5 6 7 6 5 5 6 10 16 16 10 8 12 9 6 7 8 7 7 8 8 6 6 8 8 8 8 8 7 7 7 6 6 6 5 5 6 6 7 7 8 8 8 7 7 7 7 7 6 6 6 6 6 7 7 6 7 6 6 5 5 5 4 4
6 4 7 9 5 8 8 2 5 14 12 3 3 12 19 15 7 6 9 7 4 2 2 5 9 7 6 6 3 3 11 17 14 6 3 7 10 7 7 8 7 12 19 14 9 13 14 8 6 8 6 5 9 8 5 5 6 7 7 7 8 7 6 6 6 6 6 6 6 5 6 7 9 9 9 8 8 8 8 8 7 6 6 6 6 7 7 7 6 6 5 5 4 4 4 5 5
7 6 7 7 6 7 7 5 5 11 14 5 -1 5 12 14 7 6 11 7 3 6 3 2 5 6 5 6 5 4 4 9 14 14 11 7 5 6 7 8 9 10 16 18 13 11 12 9 6 7 6 5 8 10 8 7 7 7 7 8 8 7 6 6 6 6 6 7 6 5 5 7 9 10 9 8 8 8 8 8 8 7 6 6 6 7 7 7 6 5 5 4 4 4 5 6 7
5 4 5 6 8 4 4 9 5 8 17 8 -2 2 9 13 6 1 7 8 6 7 4 2 2 3 5 8 11 12 5 1 3 11 18 15 8 4 3 6 8 8 11 17 17 11 8 7 5 8 8 5 6 10 9 6 7 8 6 8 9 8 6 5 6 6 6 6 6 5 6 6 7 10 10 8 8 8 8 8 8 7 7 7 7 7 8 7 6 6 5 5 4 6 8 7 7
3 3 5 6 6 2 3 8 3 3 10 2 -3 2 4 6 2 -4 1 7 11 12 9 7 4 3 5 4 7 10 8 4 1 -1 6 15 16 10 5 6 6 5 7 12 18 16 10 8 6 9 11 7 6 9 5 3 7 8 7 9 9 8 7 6 7 8 6 6 6 6 7 7 7 9 9 9 8 9 9 8 9 8 8 8 7 8 8 7 7 6 5 6 7 8 8 7 6
4 6 4 3 4 5 8 9 3 5 8 2 2 4 2 2 2 2 4 4 7 8 8 9 8 7 6 3 5 8 8 9 7 0 -2 6 16 15 10 9 7 6 5 7 15 18 14 11 9 10 11 7 8 9 5 7 9 5 4 8 8 8 8 8 10 10 8 7 7 8 9 9 9 8 8 8 9 11 11 10 9 9 8 8 7 8 8 8 7 7 6 7 8 8 7 7 6
6 3 2 6 7 7 11 10 4 5 6 4 6 4 3 6 7 8 8 6 6 6 6 9 11 11 9 6 8 11 13 13 11 8 6 5 11 14 11 10 8 7 4 4 10 16 16 14 11 12 12 8 8 8 6 11 12 4 2 4 4 6 7 7 10 11 10 9 9 10 10 9 10 9 6 6 9 11 12 11 9 8 7 7 8 8 8 8 7 6 6 7 6 6 7 7 6
7 5 7 13 10 7 11 11 7 8 5 3 9 9 5 6 9 11 12 11 11 12 14 14 14 17 16 12 11 12 14 16 12 12 11 6 7 11 12 11 10 8 7 6 6 9 13 14 13 13 12 9 8 8 8 10 8 6 7 4 1 2 3 6 9 9 9 10 11 11 11 9 8 8 7 7 8 10 11 10 8 6 5 6 8 7 5 6 8 6 5 5 4 6 7 7 6
Height
5924 5924 5924 5924 5924 5923 5923 5923 5922 5922 5922 5923 5922 5921 5922 5922 5921 5921 5921 5921 5922 5923 5924 5924 5925 5925 5926 5926 5926 5927 5927 5928 5930 5931 5932 5932 5933 5932 5933 5933 5933 5932 5931 5931 5931 5932 5932 5932 5932 5932 5932 5933 5933 5933 5933 5933 5933 5933 5933 5933 5932 5932 5932 5931 5931 5930 5930 5929 5929 5929 5929 5929 5928 5928 5929 5929 5929 5929 5929 5928 5928 5928 5927 5927 5927 5926 5925 5924 5924 5923 5923 5922 5922 5922 5922 5921 5921
5924 5924 5924 5924 5924 5923 5923 5922 5922 5922 5923 5923 5922 5922 5921 5921 5921 5922 5921 5921 5922 5923 5924 5925 5925 5926 5926 5927 5927 5927 5928 5929 5930 5931 5932 5933 5933 5934 5933 5933 5933 5932 5932 5932 5932 5933 5933 5933 5933 5933 5933 5933 5934 5934 5934 5934 5934 5934 5934 5933 5933 5933 5933 5932 5932 5931 5931 5931 5930 5930 5930 5930 5929 5929 5929 5930 5930 5930 5930 5930 5929 5929 5928 5928 5928 5927 5926 5925 5925 5924 5924 5924 5924 5924 5923 5922 5922
5925 5924 5924 5924 5924 5923 5923 5922 5921 5922 5924 5924 5923 5922 5921 5921 5921 5921 5921 5922 5923 5923 5924 5925 5926 5926 5927 5927 5927 5928 5928 5929 5931 5932 5933 5934 5934 5934 5934 5934 5934 5933 5932 5933 5933 5933 5934 5934 5934 5934 5934 5934 5934 5935 5935 5935 5935 5935 5935 5934 5934 5934 5934 5933 5933 5933 5933 5932 5932 5931 5931 5930 5930 5930 5930 5930 5931 5931 5931 5931 5930 5930 5929 5929 5929 5928 5927 5926 5926 5925 5925 5925 5925 5925 5924 5923 5923
5925 5924 5924 5924 5924 5923 5923 5922 5922 5922 5924 5924 5924 5923 5922 5921 5921 5921 5921 5922 5923 5924 5924 5925 5926 5927 5927 5928 5928 5928 5929 5930 5931 5932 5933 5934 5934 5934 5935 5935 5934 5934 5933 5933 5934 5934 5934 5935 5935 5935 5935 5935 5935 5935 5935 5935 5936 5936 5935 5935 5935 5935 5935 5935 5934 5934 5934 5934 5933 5932 5932 5932 5931 5931 5931 5931 5931 5932 5932 5931 5931 5931 5930 5930 5930 5929 5928 5927 5927 5927 5926 5926 5926 5926 5925 5925 5925
5924 5924 5924 5924 5924 5924 5923 5923 5922 5922 5924 5924 5924 5924 5924 5924 5923 5920 5921 5923 5923 5924 5924 5925 5926 5926 5927 5928 5928 5928 5929 5930 5931 5932 5933 5934 5934 5934 5935 5935 5935 5934 5934 5934 5934 5935 5935 5936 5936 5936 5936 5936 5936 5936 5936 5937 5937 5936 5936 5936 5936 5936 5936 5936 5935 5935 5935 5935 5934 5933 5933 5933 5932 5932 5932 5932 5932 5932 5932 5932 5932 5932 5931 5931 5931 5930 5929 5928 5928 5928 5928 5927 5927 5927 5926 5926 5926
5925 5925 5925 5925 5925 5925 5924 5924 5923 5923 5924 5925 5925 5925 5924 5926 5926 5921 5921 5923 5923 5924 5924 5925 5926 5926 5927 5928 5929 5929 5930 5931 5931 5932 5934 5934 5934 5935 5935 5935 5935 5935 5935 5935 5935 5936 5936 5937 5937 5937 5937 5937 5937 5937 5937 5938 5937 5937 5937 5937 5937 5937 5937 5937 5936 5936 5936 5936 5935 5934 5934 5934 5934 5933 5933 5933 5933 5933 5933 5933 5933 5932 5932 5931 5931 5931 5930 5929 5929 5929 5929 5929 5928 5928 5928 5927 5927
5926 5925 5925 5925 5925 5925 5925 5924 5923 5924 5925 5926 5925 5925 5924 5925 5928 5923 5921 5923 5923 5924 5925 5925 5926 5927 5927 5928 5929 5930 5930 5931 5931 5932 5933 5934 5934 5935 5935 5935 5936 5936 5936 5936 5936 5936 5937 5937 5938 5938 5938 5938 5938 5938 5938 5938 5938 5938 5938 5938 5938 5938 5937 5937 5937 5937 5937 5936 5936 5935 5935 5935 5935 5934 5934 5934 5934 5934 5934 5934 5933 5933 5933 5932 5932 5932 5931 5930 5930 5930 5930 5930 5929 5929 5928 5928 5928
5926 5925 5925 5925 5925 5925 5924 5923 5923 5924 5924 5925 5925 5925 5924 5924 5926 5925 5922 5922 5923 5924 5925 5926 5926 5927 5928 5928 5929 5930 5931 5931 5932 5932 5933 5934 5934 5935 5936 5936 5936 5936 5936 5937 5937 5937 5938 5938 5939 5939 5939 5939 5939 5939 5939 5939 5939 5939 5939 5939 5939 5938 5938 5938 5938 5938 5938 5937 5937 5936 5936 5936 5935 5935 5935 5935 5935 5935 5935 5934 5934 5934 5934 5933 5933 5933 5932 5932 5932 5931 5931 5931 5930 5930 5929 5929 5929
5925 5925 5925 5926 5925 5925 5924 5923 5923 5924 5924 5924 5924 5924 5924 5923 5924 5927 5925 5921 5922 5924 5925 5927 5927 5928 5928 5929 5930 5930 5931 5931 5932 5933 5933 5934 5934 5935 5936 5936 5936 5937 5937 5937 5938 5938 5938 5939 5939 5940 5940 5940 5940 5940 5940 5940 5940 5940 5940 5940 5939 5939 5939 5939 5939 5939 5938 5938 5937 5937 5937 5937 5936 5935 5935 5935 5935 5935 5935 5935 5935 5935 5935 5934 5934 5934 5933 5933 5933 5933 5932 5932 5932 5931 5931 5930 5931
5925 5925 5925 5925 5925 5925 5924 5923 5923 5924 5924 5923 5923 5924 5924 5924 5925 5928 5927 5922 5923 5925 5926 5927 5927 5928 5929 5929 5930 5931 5931 5932 5932 5933 5933 5934 5934 5935 5935 5936 5936 5937 5937 5938 5938 5939 5939 5939 5940 5940 5941 5941 5941 5941 5941 5941 5941 5941 5940 5940 5940 5940 5940 5940 5940 5939 5939 5939 5938 5938 5937 5937 5937 5936 5936 5936 5936 5936 5936 5936 5936 5936 5935 5935 5935 5935 5935 5934 5934 5934 5934 5933 5933 5933 5932 5932 5932
5924 5925 5926 5925 5925 5925 5924 5923 5923 5923 5924 5923 5924 5925 5925 5926 5927 5928 5927 5924 5924 5925 5926 5927 5927 5927 5929 5930 5930 5931 5932 5932 5932 5933 5934 5934 5934 5935 5935 5936 5937 5937 5937 5938 5939 5939 5940 5940 5940 5941 5941 5941 5942 5942 5942 5942 5941 5941 5941 5941 5941 5941 5941 5941 5940 5940 5940 5939 5939 5938 5938 5938 5937 5937 5937 5936 5936 5936 5936 5936 5937 5936 5936 5936 5936 5936 5936 5935 5936 5935 5935 5935 5934 5934 5934 5933 5933
5925 5925 5926 5926 5925 5924 5923 5923 5922 5923 5924 5923 5924 5926 5927 5927 5927 5927 5926 5925 5925 5926 5926 5926 5927 5927 5928 5930 5930 5931 5932 5932 5932 5933 5934 5934 5935 5935 5935 5936 5937 5937 5938 5938 5939 5939 5940 5940 5941 5941 5941 5941 5942 5942 5942 5942 5942 5942 5942 5942 5942 5942 5941 5941 5941 5940 5940 5940 5939 5939 5939 5938 5938 5938 5937 5937 5937 5937 5937 5937 5937 5937 5937 5937 5937 5937 5937 5937 5937 5937 5936 5936 5935 5935 5935 5935 5934
5925 5925 5926 5926 5926 5924 5923 5922 5922 5924 5926 5925 5925 5926 5927 5927 5926 5927 5927 5927 5926 5926 5926 5927 5927 5927 5928 5929 5930 5931 5931 5932 5932 5933 5934 5934 5935 5935 5935 5936 5937 5937 5938 5939 5939 5940 5940 5941 5941 5941 5942 5942 5942 5942 5943 5943 5942 5942 5942 5942 5942 5942 5942 5942 5942 5941 5940 5940 5940 5939 5939 5939 5938 5938 5938 5938 5938 5937 5937 5937 5938 5938 5938 5938 5938 5938 5938 5938 5938 5938 5937 5937 5937 5937 5937 5936 5935
5926 5926 5926 5926 5926 5925 5924 5923 5923 5926 5927 5926 5925 5926 5927 5926 5927 5927 5927 5927 5927 5927 5927 5927 5927 5928 5929 5930 5930 5931 5931 5931 5932 5933 5933 5934 5934 5934 5935 5936 5937 5937 5938 5939 5940 5940 5940 5941 5942 5942 5942 5942 5942 5943 5943 5943 5943 5943 5943 5943 5943 5943 5943 5943 5942 5942 5941 5940 5940 5939 5939 5938 5938 5938 5938 5938 5938 5938 5938 5938 5938 5938 5938 5939 5939 5939 5939 5939 5939 5939 5938 5938 5938 5938 5938 5937 5936
5926 5926 5926 5926 5926 5926 5925 5924 5925 5927 5927 5926 5925 5927 5928 5927 5928 5927 5926 5927 5927 5928 5928 5928 5928 5928 5929 5930 5930 5931 5931 5931 5932 5933 5933 5934 5934 5934 5935 5936 5937 5938 5938 5939 5940 5941 5941 5941 5942 5942 5943 5943 5943 5943 5943 5943 5943 5943 5943 5943 5943 5943 5943 5943 5943 5942 5941 5941 5940 5939 5938 5938 5938 5938 5938 5938 5938 5938 5938 5938 5938 5939 5939 5939 5939 5939 5939 5940 5940 5940 5939 5939 5939 5939 5939 5938 5937
5926 5926 5926 5926 5926 5926 5925 5924 5926 5927 5926 5926 5927 5928 5929 5929 5929 5928 5927 5927 5928 5929 5929 5929 5928 5928 5929 5929 5930 5930 5931 5931 5931 5932 5933 5934 5934 5934 5935 5936 5937 5938 5939 5939 5940 5941 5941 5942 5942 5943 5943 5943 5943 5943 5943 5944 5944 5943 5943 5944 5943 5943 5943 5943 5943 5943 5942 5941 5940 5940 5939 5938 5938 5938 5938 5938 5938 5938 5939 5939 5939 5939 5939 5940 5940 5940 5940 5940 5941 5940 5940 5940 5940 5940 5939 5939 5939
5926 5926 5926 5926 5926 5926 5926 5925 5926 5926 5924 5926 5928 5928 5929 5929 5929 5929 5928 5929 5929 5930 5930 5930 5929 5928 5929 5929 5930 5930 5931 5931 5932 5932 5933 5934 5934 5935 5935 5936 5937 5938 5939 5939 5940 5941 5942 5942 5942 5943 5943 5943 5944 5944 5944 5944 5944 5944 5944 5944 5944 5943 5943 5943 5943 5943 5942 5942 5941 5940 5939 5938 5938 5938 5938 5938 5939 5939 5939 5939 5939 5940 5940 5940 5940 5940 5940 5941 5941 5941 5941 5941 5941 5940 5940 5940 5940
5926 5926 5926 5926 5927 5927 5926 5925 5926 5926 5924 5925 5927 5928 5928 5928 5928 5929 5928 5929 5929 5930 5930 5930 5929 5929 5929 5929 5930 5930 5931 5931 5932 5932 5933 5933 5934 5934 5935 5936 5937 5937 5938 5939 5940 5941 5941 5942 5942 5943 5943 5944 5944 5944 5944 5944 5944 5944 5944 5944 5944 5943 5943 5943 5943 5943 5942 5942 5941 5940 5939 5938 5938 5938 5938 5939 5939 5939 5939 5940 5940 5940 5940 5940 5941 5941 5941 5941 5942 5942 5942 5942 5941 5941 5941 5941 5941
5926 5926 5926 5926 5926 5926 5926 5925 5926 5926 5925 5925 5926 5927 5927 5927 5928 5928 5928 5928 5929 5929 5930 5929 5928 5929 5929 5929 5929 5930 5930 5931 5932 5932 5932 5933 5934 5934 5935 5936 5936 5937 5938 5939 5940 5940 5941 5941 5942 5943 5943 5944 5944 5944 5944 5945 5945 5945 5944 5944 5944 5943 5943 5943 5943 5943 5942 5942 5941 5940 5940 5939 5938 5938 5939 5939 5939 5939 5940 5940 5940 5940 5941 5941 5941 5941 5941 5942 5943 5943 5943 5943 5942 5942 5942 5942 5942
5926 5926 5926 5926 5926 5926 5926 5925 5926 5925 5925 5925 5926 5926 5926 5927 5927 5928 5928 5928 5929 5928 5928 5928 5928 5928 5928 5929 5929 5929 5930 5931 5932 5932 5932 5933 5934 5934 5934 5935 5936 5936 5937 5938 5939 5939 5940 5941 5941 5942 5943 5943 5944 5944 5944 5945 5945 5945 5945 5944 5944 5943 5943 5943 5943 5942 5942 5942 5941 5940 5940 5939 5939 5939 5939 5939 5940 5940 5940 5940 5940 5940 5941 5941 5941 5942 5942 5942 5943 5943 5944 5944 5943 5943 5942 5942 5942
5927 5927 5926 5926 5926 5926 5926 5925 5926 5926 5925 5925 5925 5925 5925 5926 5927 5927 5927 5927 5928 5928 5927 5927 5928 5928 5928 5929 5929 5929 5929 5930 5931 5932 5932 5933 5933 5934 5934 5934 5935 5936 5936 5937 5938 5939 5939 5940 5941 5942 5942 5943 5943 5944 5944 5944 5944 5944 5944 5944 5944 5943 5943 5943 5943 5942 5942 5941 5941 5940 5940 5940 5939 5939 5939 5940 5940 5940 5940 5940 5940 5940 5941 5942 5942 5942 5942 5943 5943 5944 5944 5945 5944 5944 5943 5943 5943
5927 5926 5926 5926 5926 5926 5926 5925 5926 5925 5925 5925 5925 5925 5925 5925 5926 5926 5926 5926 5926 5927 5927 5927 5927 5927 5928 5928 5928 5929 5929 5930 5931 5931 5931 5932 5933 5933 5934 5934 5935 5936 5936 5937 5938 5938 5939 5940 5940 5941 5942 5942 5943 5943 5944 5944 5944 5944 5944 5944 5944 5943 5943 5943 5943 5942 5941 5941 5941 5940 5940 5940 5940 5939 5940 5940 5940 5940 5940 5940 5940 5941 5941 5942 5942 5942 5943 5943 5943 5944 5945 5945 5945 5945 5944 5944 5944
5927 5926 5926 5926 5926 5926 5926 5925 5925 5925 5925 5925 5925 5926 5926 5925 5926 5926 5926 5925 5925 5926 5926 5927 5927 5927 5927 5928 5928 5928 5929 5929 5930 5931 5931 5931 5932 5933 5933 5934 5934 5935 5936 5937 5937 5937 5938 5939 5940 5941 5941 5941 5942 5943 5943 5944 5944 5944 5944 5944 5943 5943 5943 5943 5942 5942 5942 5941 5941 5940 5940 5940 5940 5940 5940 5940 5940 5940 5940 5940 5941 5941 5941 5942 5942 5943 5943 5943 5944 5944 5945 5946 5946 5945 5944 5945 5945
5927 5926 5927 5927 5927 5926 5927 5926 5926 5925 5925 5925 5926 5926 5926 5926 5926 5926 5926 5925 5925 5926 5926 5926 5926 5927 5928 5928 5928 5928 5929 5929 5930 5931 5931 5931 5931 5932 5933 5933 5933 5934 5935 5936 5936 5937 5938 5939 5940 5940 5940 5941 5941 5942 5942 5943 5943 5943 5943 5943 5943 5943 5943 5942 5942 5942 5941 5941 5941 5940 5940 5940 5940 5940 5940 5940 5940 5940 5940 5940 5941 5941 5941 5942 5942 5943 5943 5944 5944 5944 5945 5945 5945 5945 5945 5945 5945
5927 5927 5928 5928 5927 5927 5927 5927 5926 5926 5925 5925 5925 5926 5926 5926 5926 5925 5925 5925 5925 5925 5926 5925 5925 5927 5928 5928 5928 5928 5929 5929 5930 5930 5931 5931 5931 5931 5932 5933 5933 5934 5934 5935 5936 5936 5937 5938 5939 5940 5940 5940 5941 5941 5941 5942 5942 5942 5942 5942 5942 5942 5942 5942 5941 5941 5941 5941 5940 5940 5939 5939 5939 5940 5940 5940 5940 5940 5940 5940 5941 5941 5941 5942 5942 5943 5943 5944 5944 5944 5945 5945 5945 5945 5945 5944 5944
5927 5927 5928 5929 5929 5928 5927 5927 5927 5926 5926 5925 5925 5925 5925 5925 5925 5925 5926 5925 5925 5925 5926 5926 5925 5925 5927 5927 5928 5928 5928 5929 5929 5930 5931 5931 5931 5931 5931 5932 5933 5933 5933 5934 5935 5936 5936 5937 5938 5939 5939 5939 5940 5940 5940 5940 5941 5941 5941 5941 5941 5941 5941 5941 5941 5941 5940 5940 5940 5939 5939 5938 5939 5939 5940 5940 5940 5940 5940 5940 5941 5941 5941 5941 5942 5943 5943 5944 5944 5944 5945 5945 5945 5945 5944 5944 5944
5928 5928 5929 5928 5928 5928 5928 5928 5927 5927 5926 5926 5925 5925 5924 5924 5924 5924 5925 5925 5925 5924 5925 5926 5926 5925 5925 5926 5926 5927 5927 5928 5928 5929 5930 5931 5931 5930 5930 5931 5932 5932 5932 5933 5934 5934 5935 5935 5937 5938 5938 5938 5938 5938 5939 5939 5939 5940 5940 5940 5940 5941 5941 5941 5940 5940 5940 5940 5939 5939 5938 5938 5938 5939 5939 5939 5940 5940 5940 5940 5941 5941 5941 5941 5942 5942 5943 5943 5944 5944 5945 5945 5945 5945 5945 5944 5944
5928 5928 5929 5928 5928 5928 5928 5928 5928 5927 5926 5925 5925 5925 5925 5924 5924 5924 5924 5924 5925 5924 5924 5925 5926 5925 5924 5924 5925 5925 5926 5927 5927 5927 5929 5930 5930 5930 5930 5930 5930 5931 5931 5932 5932 5933 5934 5934 5935 5936 5937 5937 5937 5937 5937 5938 5938 5938 5939 5939 5939 5940 5940 5940 5940 5939 5939 5939 5939 5938 5938 5938 5938 5938 5939 5939 5939 5940 5940 5940 5941 5941 5941 5941 5941 5942 5942 5943 5943 5943 5944 5944 5945 5945 5945 5945 5944
5928 5928 5928 5928 5928 5927 5927 5928 5928 5927 5926 5925 5925 5924 5924 5924 5923 5923 5923 5923 5923 5924 5924 5924 5924 5924 5924 5923 5923 5924 5925 5926 5925 5925 5927 5929 5929 5929 5929 5929 5930 5930 5930 5931 5931 5932 5932 5933 5934 5935 5936 5936 5936 5936 5936 5937 5937 5938 5938 5938 5938 5939 5939 5939 5939 5938 5938 5938 5938 5938 5937 5937 5938 5938 5938 5939 5939 5939 5940 5940 5940 5941 5941 5941 5941 5942 5942 5942 5942 5943 5943 5944 5944 5944 5945 5945 5944
5928 5927 5927 5927 5927 5927 5927 5928 5928 5927 5926 5925 5925 5924 5923 5923 5923 5922 5922 5922 5922 5922 5923 5923 5923 5923 5923 5922 5923 5923 5924 5925 5926 5925 5926 5927 5929 5929 5929 5929 5929 5929 5929 5930 5930 5931 5931 5931 5932 5934 5934 5935 5935 5935 5935 5936 5936 5937 5937 5937 5938 5938 5938 5938 5938 5938 5937 5937 5937 5937 5937 5937 5937 5937 5938 5938 5938 5939 5939 5940 5940 5940 5941 5941 5941 5941 5941 5942 5942 5942 5943 5943 5943 5944 5944 5944 5944
5927 5926 5926 5926 5927 5927 5927 5928 5928 5927 5926 5925 5925 5924 5922 5922 5922 5921 5921 5921 5921 5921 5922 5922 5922 5922 5921 5922 5922 5922 5923 5924 5925 5926 5925 5926 5928 5929 5929 5929 5929 5928 5928 5929 5929 5929 5930 5930 5931 5932 5933 5933 5934 5934 5934 5935 5936 5936 5936 5937 5937 5937 5938 5938 5937 5937 5937 5937 5937 5937 5937 5937 5937 5937 5937 5937 5938 5938 5939 5939 5940 5940 5940 5940 5941 5941 5941 5941 5941 5942 5942 5942 5942 5943 5943 5944 5943
5926 5925 5924 5925 5925 5926 5927 5928 5927 5926 5925 5924 5924 5923 5922 5921 5921 5921 5920 5921 5920 5920 5921 5921 5921 5921 5921 5921 5921 5921 5922 5922 5924 5925 5925 5924 5925 5927 5929 5929 5929 5928 5928 5928 5928 5928 5929 5929 5930 5931 5931 5932 5933 5933 5934 5934 5935 5935 5936 5936 5936 5937 5937 5937 5937 5937 5937 5936 5936 5936 5936 5936 5936 5936 5936 5937 5937 5938 5938 5939 5939 5939 5940 5940 5941 5941 5941 5941 5941 5941 5941 5941 5941 5942 5942 5942 5942
5925 5924 5924 5924 5925 5926 5927 5927 5927 5926 5925 5924 5923 5923 5922 5921 5920 5920 5920 5921 5920 5920 5919 5919 5920 5920 5920 5920 5920 5920 5920 5921 5922 5923 5925 5925 5923 5925 5928 5930 5930 5929 5928 5927 5928 5928 5928 5928 5929 5930 5930 5931 5932 5932 5933 5933 5934 5934 5935 5935 5935 5936 5936 5936 5937 5936 5936 5936 5935 5936 5936 5936 5936 5936 5936 5936 5936 5937 5938 5938 5938 5939 5939 5940 5940 5940 5941 5941 5941 5941 5941 5941 5941 5941 5941 5941 5941
5924 5924 5924 5925 5925 5926 5927 5927 5925 5925 5924 5924 5923 5922 5922 5921 5921 5920 5920 5920 5920 5919 5918 5918 5918 5918 5918 5919 5919 5919 5919 5920 5921 5921 5924 5925 5923 5922 5925 5929 5930 5929 5928 5927 5927 5927 5927 5928 5928 5929 5930 5930 5931 5931 5932 5932 5932 5933 5934 5934 5934 5934 5935 5935 5935 5935 5935 5935 5935 5935 5935 5935 5935 5935 5935 5935 5936 5936 5937 5937 5938 5938 5939 5939 5939 5940 5940 5940 5940 5941 5941 5941 5941 5941 5940 5940 5940
5924 5924 5925 5925 5925 5926 5927 5926 5924 5924 5924 5924 5923 5921 5921 5921 5921 5920 5919 5919 5918 5918 5917 5917 5917 5917 5917 5917 5918 5918 5919 5919 5920 5920 5922 5924 5923 5921 5921 5924 5928 5929 5928 5927 5926 5926 5926 5927 5928 5928 5929 5930 5930 5930 5930 5931 5931 5931 5932 5933 5933 5934 5933 5933 5933 5934 5934 5934 5934 5935 5935 5935 5935 5935 5935 5934 5935 5935 5936 5936 5937 5937 5938 5938 5939 5939 5939 5939 5940 5940 5940 5941 5941 5940 5940 5940 5940
5924 5924 5925 5925 5925 5925 5925 5924 5923 5923 5923 5923 5923 5921 5921 5921 5921 5920 5919 5918 5917 5916 5916 5916 5916 5917 5917 5917 5917 5917 5918 5918 5919 5919 5920 5921 5922 5922 5920 5920 5924 5927 5927 5927 5926 5925 5925 5926 5927 5927 5928 5929 5929 5929 5929 5930 5929 5930 5931 5931 5932 5933 5933 5932 5932 5933 5933 5933 5934 5934 5934 5934 5934 5934 5934 5934 5934 5935 5935 5935 5936 5936 5937 5938 5938 5938 5939 5939 5939 5939 5940 5940 5940 5940 5940 5939 5939
5924 5924 5925 5925 5925 5925 5924 5923 5922 5922 5923 5923 5922 5921 5920 5920 5920 5920 5918 5917 5916 5915 5915 5915 5915 5916 5916 5916 5916 5916 5917 5917 5917 5918 5919 5919 5920 5921 5921 5920 5922 5924 5926 5926 5925 5924 5924 5925 5926 5926 5927 5928 5929 5928 5928 5929 5929 5929 5929 5930 5931 5932 5932 5932 5932 5932 5932 5932 5933 5933 5933 5933 5934 5933 5933 5934 5934 5934 5934 5934 5935 5935 5936 5937 5937 5938 5938 5938 5938 5938 5939 5939 5939 5939 5939 5939 5939
5925 5925 5925 5925 5925 5924 5922 5921 5921 5921 5921 5921 5920 5920 5920 5919 5919 5919 5918 5917 5916 5915 5914 5914 5913 5914 5915 5915 5916 5916 5916 5916 5916 5916 5917 5918 5918 5919 5920 5921 5921 5922 5924 5925 5925 5924 5924 5924 5925 5925 5926 5927 5928 5928 5928 5928 5928 5928 5928 5929 5929 5930 5931 5931 5931 5931 5931 5931 5932 5933 5933 5933 5933 5933 5933 5933 5933 5933 5933 5934 5934 5935 5935 5936 5936 5937 5937 5937 5937 5937 5937 5938 5938 5938 5938 5938 5938
5926 5925 5925 5925 5924 5923 5921 5920 5920 5920 5920 5919 5919 5919 5919 5918 5917 5917 5917 5917 5916 5915 5915 5913 5913 5913 5914 5914 5915 5914 5914 5915 5916 5916 5915 5916 5917 5918 5919 5920 5920 5920 5921 5923 5924 5924 5924 5924 5924 5924 5924 5925 5926 5927 5927 5927 5927 5927 5928 5928 5928 5929 5930 5930 5931 5930 5930 5930 5931 5932 5932 5933 5933 5933 5933 5933 5933 5932 5933 5933 5933 5934 5935 5935 5935 5936 5936 5936 5937 5937 5937 5937 5937 5937 5937 5937 5937
5926 5925 5924 5924 5922 5921 5920 5920 5919 5919 5918 5918 5918 5918 5918 5916 5915 5916 5916 5915 5914 5914 5914 5913 5913 5912 5913 5913 5913 5913 5913 5913 5915 5915 5915 5915 5916 5916 5917 5917 5917 5917 5919 5921 5922 5922 5922 5922 5922 5923 5923 5924 5925 5925 5925 5926 5926 5926 5927 5927 5927 5928 5929 5929 5929 5930 5930 5930 5931 5932 5932 5932 5932 5932 5932 5932 5932 5932 5932 5932 5933 5933 5934 5934 5935 5935 5936 5936 5936 5936 5936 5936 5936 5936 5936 5936 5936
5925 5924 5923 5922 5921 5921 5920 5919 5918 5918 5918 5917 5916 5917 5917 5915 5915 5914 5914 5913 5912 5912 5913 5913 5912 5912 5912 5912 5912 5912 5912 5912 5913 5914 5914 5914 5914 5915 5915 5916 5916 5916 5916 5918 5919 5919 5919 5920 5921 5921 5922 5922 5923 5924 5924 5925 5925 5925 5926 5926 5927 5927 5928 5928 5929 5929 5929 5929 5930 5931 5931 5932 5932 5932 5931 5931 5931 5931 5932 5932 5932 5933 5933 5933 5933 5934 5934 5934 5935 5935 5935 5935 5935 5935 5935 5935 5935
5924 5923 5923 5922 5921 5921 5920 5918 5917 5916 5916 5917 5916 5916 5916 5915 5914 5913 5912 5911 5911 5910 5911 5911 5911 5911 5910 5911 5911 5911 5911 5911 5911 5911 5912 5913 5913 5913 5913 5914 5914 5915 5915 5916 5917 5917 5917 5918 5919 5920 5920 5920 5921 5922 5923 5924 5924 5925 5925 5926 5926 5927 5927 5928 5928 5929 5929 5929 5929 5930 5930 5931 5931 5931 5931 5931 5931 5931 5931 5932 5932 5932 5932 5932 5932 5933 5933 5933 5933 5933 5933 5933 5933 5933 5933 5933 5933
5924 5923 5922 5921 5921 5920 5919 5919 5918 5915 5915 5916 5917 5916 5915 5914 5912 5911 5911 5910 5910 5909 5909 5910 5910 5910 5909 5909 5909 5909 5909 5909 5909 5909 5909 5910 5910 5910 5911 5911 5912 5912 5913 5914 5915 5915 5915 5916 5917 5918 5919 5919 5919 5920 5921 5922 5923 5924 5925 5925 5926 5926 5927 5927 5928 5928 5928 5929 5929 5929 5929 5929 5930 5930 5930 5930 5930 5930 5931 5931 5931 5931 5931 5931 5931 5931 5932 5932 5932 5932 5932 5932 5932 5932 5932 5932 5932
5924 5923 5922 5921 5920 5919 5919 5919 5919 5916 5916 5917 5918 5916 5914 5912 5911 5910 5909 5909 5908 5908 5908 5909 5910 5909 5908 5908 5907 5907 5907 5907 5907 5906 5907 5907 5907 5907 5908 5908 5909 5910 5910 5912 5913 5914 5914 5914 5915 5916 5917 5917 5918 5919 5920 5921 5922 5923 5924 5925 5925 5926 5926 5926 5927 5927 5928 5928 5928 5928 5928 5928 5928 5928 5929 5929 5929 5930 5930 5930 5930 5930 5930 5930 5930 5930 5930 5931 5931 5931 5931 5931 5931 5930 5930 5931 5930
5925 5923 5922 5922 5921 5919 5918 5917 5917 5916 5916 5917 5917 5914 5913 5911 5909 5908 5908 5908 5908 5908 5908 5909 5909 5909 5908 5906 5905 5905 5905 5905 5905 5905 5905 5905 5904 5904 5905 5906 5906 5907 5908 5909 5911 5912 5912 5912 5912 5913 5915 5916 5917 5917 5918 5919 5920 5922 5922 5923 5924 5925 5925 5925 5926 5926 5927 5927 5927 5927 5927 5927 5927 5927 5928 5928 5928 5928 5928 5929 5929 5929 5929 5929 5929 5929 5929 5930 5930 5930 5930 5930 5929 5929 5929 5929 5929
5924 5924 5923 5922 5920 5919 5917 5915 5915 5915 5915 5915 5914 5912 5911 5910 5909 5908 5907 5907 5908 5908 5907 5907 5908 5908 5907 5906 5905 5904 5904 5903 5903 5903 5903 5903 5903 5902 5902 5903 5904 5904 5905 5907 5908 5910 5911 5911 5910 5911 5913 5914 5915 5916 5917 5918 5919 5920 5921 5922 5923 5923 5924 5924 5925 5926 5926 5926 5926 5926 5926 5926 5926 5926 5927 5927 5927 5927 5927 5927 5927 5928 5928 5928 5928 5928 5929 5929 5929 5929 5929 5929 5929 5928 5928 5928 5927
5924 5923 5922 5921 5919 5917 5915 5914 5913 5913 5914 5913 5912 5909 5909 5909 5909 5908 5907 5906 5907 5907 5907 5906 5906 5907 5906 5905 5903 5902 5902 5902 5901 5901 5900 5900 5901 5900 5900 5900 5901 5901 5902 5904 5905 5906 5908 5909 5909 5909 5911 5912 5913 5914 5915 5916 5917 5918 5919 5920 5921 5922 5923 5923 5924 5924 5925 5925 5925 5925 5925 5925 5925 5925 5925 5926 5926 5926 5926 5926 5926 5926 5927 5927 5927 5927 5928 5928 5928 5928 5928 5928 5928 5927 5927 5926 5926
5923 5922 5920 5919 5918 5916 5915 5914 5913 5913 5913 5912 5910 5907 5906 5907 5907 5906 5905 5904 5904 5905 5905 5905 5905 5905 5904 5903 5902 5901 5901 5901 5900 5899 5898 5898 5898 5899 5899 5898 5898 5898 5899 5901 5902 5903 5905 5907 5908 5908 5909 5910 5911 5912 5913 5914 5915 5916 5917 5918 5919 5920 5921 5922 5922 5923 5924 5924 5924 5924 5924 5924 5924 5924 5924 5925 5925 5925 5925 5925 5925 5925 5926 5926 5926 5926 5926 5927 5927 5927 5927 5927 5926 5926 5926 5925 5925
5921 5920 5918 5917 5916 5916 5915 5914 5913 5912 5912 5912 5909 5906 5905 5905 5905 5904 5904 5903 5903 5903 5904 5904 5904 5903 5901 5901 5900 5900 5900 5900 5899 5898 5897 5896 5896 5896 5896 5897 5897 5897 5897 5898 5899 5900 5902 5904 5906 5906 5907 5908 5909 5910 5910 5911 5912 5913 5914 5916 5917 5918 5920 5921 5921 5922 5922 5922 5923 5923 5923 5923 5923 5923 5923 5923 5924 5924 5924 5924 5924 5925 5925 5925 5925 5925 5925 5925 5925 5925 5925 5925 5925 5925 5925 5924 5924
5920 5918 5917 5915 5915 5914 5913 5912 5912 5911 5912 5911 5908 5905 5904 5904 5903 5903 5903 5903 5902 5902 5902 5902 5902 5901 5899 5899 5899 5898 5898 5898 5898 5897 5896 5895 5894 5894 5894 5894 5894 5895 5895 5896 5897 5897 5898 5900 5903 5904 5905 5906 5907 5907 5908 5909 5910 5911 5913 5914 5915 5916 5917 5918 5919 5920 5921 5921 5921 5922 5921 5922 5922 5923 5923 5922 5922 5923 5923 5923 5923 5924 5924 5924 5924 5924 5924 5924 5924 5924 5924 5923 5923 5923 5923 5922 5922
5919 5918 5916 5915 5913 5912 5911 5910 5910 5910 5910 5909 5906 5905 5904 5902 5902 5902 5902 5902 5901 5900 5900 5900 5900 5899 5898 5897 5897 5896 5896 5895 5895 5895 5895 5894 5893 5893 5892 5892 5892 5892 5893 5893 5894 5895 5895 5897 5900 5901 5902 5903 5904 5905 5905 5906 5907 5909 5910 5912 5913 5914 5915 5915 5916 5917 5918 5919 5920 5920 5920 5920 5921 5921 5921 5921 5921 5921 5921 5921 5922 5922 5922 5922 5923 5923 5923 5922 5922 5922 5922 5921 5921 5921 5920 5920 5920
5918 5917 5916 5914 5912 5911 5909 5908 5907 5907 5906 5906 5905 5904 5903 5901 5901 5900 5900 5899 5898 5897 5897 5897 5897 5896 5896 5895 5894 5894 5893 5893 5893 5893 5893 5892 5892 5891 5890 5890 5890 5890 5890 5890 5891 5892 5893 5894 5896 5898 5899 5899 5901 5903 5904 5905 5906 5907 5908 5909 5910 5910 5911 5912 5912 5914 5915 5916 5917 5917 5918 5918 5918 5919 5919 5919 5918 5919 5919 5920 5920 5920 5921 5921 5921 5921 5921 5921 5921 5921 5921 5920 5919 5919 5918 5918 5917
5916 5915 5914 5913 5911 5909 5908 5907 5905 5905 5904 5902 5901 5901 5900 5900 5899 5898 5897 5897 5895 5894 5894 5893 5893 5894 5894 5893 5892 5891 5891 5890 5890 5890 5890 5890 5890 5888 5887 5888 5888 5888 5888 5888 5888 5889 5889 5890 5892 5894 5895 5895 5898 5901 5903 5903 5904 5904 5905 5906 5907 5907 5908 5908 5909 5910 5911 5913 5914 5915 5915 5915 5916 5916 5916 5916 5916 5916 5917 5918 5918 5919 5919 5919 5920 5920 5920 5920 5920 5920 5919 5919 5918 5918 5917 5916 5915
5913 5912 5912 5911 5909 5907 5906 5905 5904 5903 5902 5900 5898 5897 5896 5896 5896 5895 5895 5894 5892 5891 5891 5890 5890 5890 5890 5890 5889 5888 5888 5887 5887 5886 5886 5887 5887 5886 5885 5885 5885 5885 5885 5885 5886 5886 5886 5887 5888 5890 5891 5893 5896 5899 5899 5899 5899 5900 5902 5904 5905 5905 5906 5906 5907 5908 5909 5910 5911 5911 5912 5912 5913 5913 5913 5913 5914 5914 5914 5915 5916 5917 5917 5917 5918 5918 5918 5918 5918 5918 5918 5917 5917 5917 5916 5915 5914
5911 5910 5909 5908 5907 5905 5904 5903 5902 5901 5900 5899 5897 5895 5894 5894 5893 5893 5892 5892 5891 5890 5889 5888 5888 5887 5887 5886 5885 5884 5884 5883 5883 5882 5882 5883 5884 5884 5882 5882 5882 5881 5882 5882 5883 5884 5885 5885 5886 5887 5890 5892 5895 5895 5894 5895 5896 5897 5899 5901 5902 5903 5903 5904 5905 5905 5906 5907 5908 5908 5909 5909 5909 5909 5910 5911 5911 5912 5912 5913 5914 5914 5914 5914 5915 5915 5916 5916 5916 5916 5916 5916 5916 5915 5914 5914 5913
5910 5908 5907 5906 5905 5903 5902 5901 5899 5898 5897 5896 5895 5894 5893 5892 5891 5890 5890 5890 5890 5889 5888 5887 5886 5885 5884 5883 5882 5881 5880 5879 5879 5879 5878 5879 5880 5881 5880 5879 5879 5878 5878 5879 5881 5882 5883 5883 5884 5887 5890 5891 5892 5891 5890 5891 5894 5895 5896 5897 5898 5899 5900 5900 5901 5903 5904 5904 5904 5905 5905 5905 5906 5906 5907 5908 5909 5909 5910 5911 5911 5912 5911 5911 5912 5913 5914 5914 5914 5915 5915 5914 5913 5912 5912 5912 5911
5908 5907 5905 5904 5902 5900 5899 5898 5896 5895 5894 5893 5892 5891 5890 5890 5889 5888 5887 5887 5886 5886 5885 5884 5883 5882 5880 5878 5878 5877 5876 5875 5875 5875 5875 5875 5875 5877 5878 5877 5876 5875 5875 5876 5877 5879 5880 5882 5883 5885 5887 5889 5889 5889 5888 5888 5890 5892 5893 5894 5895 5896 5896 5898 5899 5900 5901 5901 5901 5901 5902 5902 5903 5903 5903 5904 5905 5906 5907 5908 5909 5909 5909 5909 5910 5911 5911 5912 5912 5912 5911 5910 5910 5909 5909 5909 5909
5906 5905 5904 5902 5900 5898 5897 5896 5894 5892 5891 5890 5889 5888 5887 5886 5885 5885 5884 5883 5882 5880 5879 5878 5877 5877 5875 5874 5873 5872 5871 5871 5871 5871 5871 5871 5871 5872 5874 5874 5873 5872 5872 5873 5874 5876 5877 5879 5881 5881 5883 5884 5885 5885 5885 5886 5887 5888 5890 5892 5893 5894 5894 5895 5896 5897 5897 5898 5898 5898 5899 5899 5900 5901 5901 5901 5902 5903 5904 5906 5906 5906 5906 5907 5907 5908 5908 5908 5908 5908 5908 5908 5907 5907 5907 5906 5906